Etusivu
METAR-TAF:

METAR-TAF

Lentoasemat :

La Grande/Union County Airport

La Grande, Oregon, Yhdysvallat

Leveyspiiri: 45-17N, Pituuspiiri: 118-00W, korkeus merenpinnasta: 827 m

Tämänhetkinen sää

Tämä raportti tehtiin 1 tunti ja 2 minuuttia sitten, kello 01.56 UTC
Tuuli 3 kn pohjoisen/luoteesta
Lämpötila -1°C
Kosteus 93%
Ilmanpaine 1025 hPa
Näkyvyys: 16.1 km
selkeää

METAR: KLGD 230156Z AUTO 33003KT 10SM CLR M01/M02 A3028 RMK AO2 SLP287 T10061022 FZRANO

Aika: 18:58 (02:58 UTC)


TAF: puuttuu

Säähavainnot ja -ennusteet yli 4000 lentoasemalta (METAR- ja TAF-raportit).

Käytössä olevat sääasemat on merkitty karttaan keltaisilla ja punaisilla pisteillä.

Aseta hiiri pisteen päälle nähdäksesi sääaseman nimen.

Klikkaa sitten nähdäksesi säähavainnot ja -ennusteet.

Kartan vaihtaminen: klikkaa mustalla rastilla varustettuja vihreitä pisteitä, niin voit zoomata sisään; viivalla varustettua vihreää pistettä, niin voit zoomata ulos tai vihreitä nuolia, niin pääset viereisille kartoille.


METAR-TAF: